DELTA 1 DEB, 3811

Orbit data source: Space-Track

DELTA 1 DEB, 3811 is space debris in SSO originally from a launch on Sun, 15 Dec 1968 UTC launched from the Air Force Western Test Range (AFWTR). Debris objects in space refer to the collection of defunct objects orbiting the Earth. Examples of debris include non-operational satellites, rocket bodies, and fragments generated from explosions, collisions, or faulty payload assembly.

Loading next visibility...
Identifier
3811, 1968-114C
Orbit
SSO
Country
Flag of USUS
Related business
Manufacturer
Unknown
Mission
Spacecraft
Bus & Motor
Unknown
Mass
Unknown
Launch date (UTC)
1968-12-15 (57 years ago)
Launch vehicle
Unknown
Launch site
Air Force Western Test Range (AFWTR)
Object type
Payload
Rocket body
Debris
Shape & HBR
Unknown shape, 0.1 m
Radar Cross Section
Small (<0.1 m²)

Expand to show TLE details & history
Last TLE update: 2 days ago

TLE from 2 days ago
0 DELTA 1 DEB
1 03811U 68114C   25300.56337977 -.00000032  00000-0  80276-4 0  9993
2 03811 101.8814 225.4178 0137430 268.5530 274.5089 12.76379141648547
Epoch: 2025-10-27T13:31Z
TLE epoch observation values (Epoch: 2025-10-27T13:31:16.012Z)
Latitude
-1.57319°
Longitude
166.10823°
Altitude
1,351.981 km
Speed
7.185 km/s
True Right ascension
03h 00m 21s
True Declination
-1° 33' 52"
Sunlit
Object was in full shadow at epoch
Visualization orbit readout
Latitude
Unknown
Longitude
Unknown
Altitude
Unknown
Speed
Unknown
Apparent Right ascension
Unknown
Apparent Declination
Unknown
Sunlit
N/A
Visualization observer readout
Local Sidereal Time
10:00:33
Azimuth
Unknown
Elevation
Unknown
Doppler factor
Unknown
Orbital elements
Apogee altitude
1,459.839 km
Perigee altitude
1,247.325 km
Semi-major axis
7,731.719 km
Eccentricity
0.01374
Inclination
101.8814°
RAAN
225.4178°
Arg. of periapsis
268.553°
True anomaly
272.93702°
Mean anomaly
274.5089°
Eccentric anomaly
273.72315°
Mean motion
3.19249 °/min
Orbital period
112.76 mins
BSTAR
0.000080276
Loading maneuver chart data...
Computing Atmospheric mass density...
Loading historical data...
Loading historical data...
Loading historical data...
Loading historical data...
Loading historical data...
Loading historical data...
Loading historical data...

Documentation

Showing up to 5 results
|